Location: ????????
(56.1167°N, 38.6333°E)
Time: 20:45:27
(UTC+00:00)

Cosmos 1400 Rocket - Pass Details

Date: 18 November 2025
Orbit: 476 x 513 km, 81.1° (Epoch: 14 December)

Event Time Altitude Azimuth Distance (km) Brightness Sun altitude
Rises 15:33:40 0° 180° (S) 2,616 6.4 -19.2°
Reaches altitude 10° 15:35:50 10° 176° (S) 1,731 5.4 -19.5°
Enters shadow 15:38:37 41° 146° (SE) 751 3.2 -19.8°
